Oroville, CA

6:11 PM PDT on July 23, 2017 (GMT -0700)
Oroville Municipal

Weather History for KOVE - June, 2013

Change the Weather History Date:

Monday, June 10, 2013

  Actual Average Record
Temperature  
Mean Temperature 66 °F -  
Max Temperature 73 °F 88 °F 102 °F (2014)
Min Temperature 60 °F 59 °F 48 °F (1959)
Cooling Degree Days 2    
Growing Degree Days 16 (Base 50)    
Moisture  
Dew Point 55 °F    
Average Humidity 74    
Maximum Humidity 87    
Minimum Humidity 51    
Precipitation  
Precipitation 0.11 in - - ()
Sea Level Pressure  
Sea Level Pressure 29.88 in    
Wind  
Wind Speed 11 mph (SSE)    
Max Wind Speed 17 mph    
Max Gust Speed 20 mph    
Visibility 10 miles    
Events Rain , Thunderstorm    
Averages and records for this station are not official NWS values.
T = Trace of Precipitation, MM = Missing Value Source: NWS Daily Summary

Daily Weather History Graph

Daily Weather History Graph

Search for Another Location

Airport or City:

Trip Planner

Search our weather history database for the weather conditions in past years. The results will help you decide how hot, cold, wet, or windy it might be!

Date:

Astronomy

Jun. 10, 2013 Rise Set
Actual Time 5:38 AM PDT 8:33 PM PDT
Civil Twilight 5:06 AM PDT 9:05 PM PDT
Nautical Twilight 4:25 AM PDT 9:46 PM PDT
Astronomical Twilight 3:38 AM PDT 10:33 PM PDT
Moon 7:31 AM PDT (6/10) 10:04 PM PDT (6/10)
Length of Visible Light 15h 59m
Length of Day
14h 54m
Waxing Crescent, 4% of the Moon is Illuminated
Jun 10
Waxing Crescent
Jun 16
First Quarter
Jun 23
Full
Jun 29
Last Quarter
Jul 8
New

Hourly Weather History & Observations

Time (PDT) Temp. Dew Point Humidity Pressure Visibility Wind Dir Wind Speed Gust Speed Precip Events Conditions
12:53 AM 64.0 °F 53.1 °F 67% 29.81 in 10.0 mi SSE 13.8 mph - N/A   Clear
1:53 AM 64.0 °F 53.1 °F 67% 29.81 in 10.0 mi South 8.1 mph - N/A   Clear
2:53 AM 62.1 °F 54.0 °F 75% 29.81 in 10.0 mi South 9.2 mph - N/A   Clear
3:53 AM 61.0 °F 53.1 °F 75% 29.82 in 10.0 mi SSE 8.1 mph - N/A   Clear
4:53 AM 60.1 °F 53.1 °F 78% 29.81 in 10.0 mi South 8.1 mph - N/A   Clear
5:43 AM 60.1 °F 53.1 °F 78% 29.82 in 10.0 mi SSE 9.2 mph - N/A Thunderstorm Clear
5:53 AM 60.1 °F 53.1 °F 78% 29.82 in 10.0 mi SSE 12.7 mph - N/A Thunderstorm Clear
6:02 AM 60.1 °F 53.1 °F 78% 29.83 in 10.0 mi SSE 10.4 mph - N/A Thunderstorm Thunderstorm
6:17 AM 60.1 °F 53.1 °F 78% 29.83 in 10.0 mi SSE 9.2 mph - N/A   Clear
6:53 AM 60.1 °F 53.1 °F 78% 29.84 in 10.0 mi SSE 11.5 mph - N/A   Clear
7:31 AM 61.0 °F 53.1 °F 75% 29.84 in 10.0 mi SSE 10.4 mph - N/A Thunderstorm Clear
7:53 AM 63.0 °F 53.1 °F 70% 29.84 in 10.0 mi SSE 11.5 mph - N/A Thunderstorm Clear
8:07 AM 64.0 °F 52.0 °F 65% 29.84 in 10.0 mi SSE 13.8 mph - N/A   Clear
8:49 AM 64.4 °F 53.6 °F 68% 29.86 in 10.0 mi South 15.0 mph - 0.00 in Thunderstorm Thunderstorm
8:53 AM 63.0 °F 53.1 °F 70% 29.86 in 10.0 mi South 15.0 mph - 0.00 in Thunderstorm Thunderstorm
9:10 AM 63.0 °F 53.1 °F 70% 29.86 in 10.0 mi South 17.3 mph - N/A   Clear
9:33 AM 62.1 °F 53.1 °F 72% 29.88 in 10.0 mi SSE 13.8 mph - N/A Thunderstorm Clear
9:46 AM 60.1 °F 55.9 °F 86% 29.88 in 9.0 mi South 9.2 mph - 0.01 in Rain , Thunderstorm Light Thunderstorms and Rain
9:53 AM 60.1 °F 55.9 °F 86% 29.89 in 10.0 mi SSE 9.2 mph - 0.01 in Rain , Thunderstorm Light Thunderstorms and Rain
10:08 AM 61.0 °F 57.0 °F 87% 29.88 in 10.0 mi SSE 11.5 mph - 0.00 in Thunderstorm Mostly Cloudy
10:53 AM 62.1 °F 55.9 °F 80% 29.89 in 10.0 mi SSE 11.5 mph - 0.00 in Thunderstorm Clear
11:43 AM 61.0 °F 55.9 °F 83% 29.90 in 10.0 mi SSE 12.7 mph - 0.01 in Rain Light Rain
11:53 AM 61.0 °F 57.0 °F 87% 29.92 in 10.0 mi SE 10.4 mph - 0.01 in Rain Light Rain
12:53 PM 62.1 °F 57.9 °F 86% 29.93 in 5.0 mi South 9.2 mph - 0.05 in Rain Light Rain
1:53 PM 63.0 °F 59.0 °F 87% 29.92 in 10.0 mi East 5.8 mph - 0.03 in Rain Light Rain
2:53 PM 66.9 °F 59.0 °F 76% 29.93 in 10.0 mi Variable 4.6 mph - 0.01 in   Mostly Cloudy
3:53 PM 71.1 °F 59.0 °F 66% 29.92 in 10.0 mi Variable 5.8 mph - N/A   Clear
4:53 PM 73.0 °F 55.9 °F 55% 29.92 in 10.0 mi South 13.8 mph 19.6 mph N/A   Clear
5:53 PM 73.0 °F 54.0 °F 51% 29.91 in 10.0 mi SSE 16.1 mph - N/A   Clear
6:53 PM 71.1 °F 53.1 °F 53% 29.92 in 10.0 mi SSE 13.8 mph - N/A   Clear
7:53 PM 69.1 °F 54.0 °F 58% 29.92 in 10.0 mi SSE 8.1 mph - N/A   Clear
8:53 PM 66.9 °F 55.9 °F 68% 29.93 in 10.0 mi SE 6.9 mph - N/A   Clear
9:53 PM 64.0 °F 55.0 °F 73% 29.95 in 10.0 mi SE 5.8 mph - N/A   Clear
10:53 PM 64.0 °F 55.9 °F 75% 29.95 in 10.0 mi East 6.9 mph - N/A   Clear
11:53 PM 62.1 °F 55.0 °F 78% 29.96 in 10.0 mi Calm Calm - N/A   Clear